Location: ?
(35.3436°N, 139.3168°E)
Time: 10:32:54
(UTC+00:00)

X-37B - Pass Details

Date: 23 January 2021
Orbit: 383 x 391 km, 45.0° (Epoch: 10 February)

Event Time Altitude Azimuth Distance (km) Brightness Sun altitude
Rises 08:31:08 0° 272° (W) 2,266 6.0 -6.5°
Reaches altitude 10° 08:33:29 10° 288° (WNW) 1,415 4.3 -6.9°
Maximum altitude 08:36:05 23° 342° (NNW) 892 2.4 -7.4°
Drops below altitude 10° 08:38:42 10° 37° (NE) 1,421 2.9 -8.0°
Enters shadow 08:39:09 - 42° (NE) 1,571 3.1 -8.0°
